This is the latest recevied weather packets stored in our database for station/object W4CKA. If no packets are shown the sender has not sent any weather packets the latest 10 day(s).
| Time | Temp. | Humidity | Pressure | Rain* | Wind** | Luminosity | Snow |
|---|---|---|---|---|---|---|---|
| 1788095531 | 24.44° C | 86% | 1065.3 hPa | 0 mm | - | 153 W/m² | - |
| 1788094926 | 23.89° C | 88% | 1065.4 hPa | 0 mm | - | 202 W/m² | - |
| 1788094327 | 23.89° C | 88% | 1065.2 hPa | 0 mm | - | 164 W/m² | - |
| 1788093726 | 22.22° C | 94% | 1065.2 hPa | 0 mm | - | 154 W/m² | - |
| 1788093125 | 20.56° C | 99% | 1065.4 hPa | 0 mm | - | 108 W/m² | - |
| 1788092522 | 20° C | 99% | 1065 hPa | 0 mm | - | 43 W/m² | - |
| 1788091917 | 20° C | 99% | 1064.8 hPa | 0 mm | - | 38 W/m² | - |
| 1788091315 | 19.44° C | 99% | 1064.8 hPa | 0 mm | - | 34 W/m² | - |
| 1788090712 | 19.44° C | 99% | 1064.6 hPa | 0 mm | - | 27 W/m² | - |
| 1788090108 | 19.44° C | 99% | 1064.7 hPa | 0 mm | - | 22 W/m² | - |
| 1788089504 | 19.44° C | 99% | 1064.5 hPa | 0 mm | - | 16 W/m² | - |
| 1788088902 | 19.44° C | 99% | 1064.5 hPa | 0 mm | - | 10 W/m² | - |
| 1788088299 | 19.44° C | 99% | 1064.3 hPa | 0 mm | - | 4 W/m² | - |
| 1788087695 | 19.44° C | 99% | 1064.2 hPa | 0 mm | - | 0 W/m² | - |
| 1788087091 | 19.44° C | 99% | 1064.2 hPa | 0 mm | - | 0 W/m² | - |
| 1788086491 | 19.44° C | 99% | 1064 hPa | 0 mm | - | 0 W/m² | - |
| 1788085890 | 19.44° C | 99% | 1064 hPa | 0 mm | - | 0 W/m² | - |
| 1788085290 | 19.44° C | 99% | 1063.9 hPa | 0 mm | - | 0 W/m² | - |
| 1788084686 | 19.44° C | 99% | 1064 hPa | 0 mm | - | 0 W/m² | - |
| 1788084086 | 20° C | 99% | 1064 hPa | 0 mm | - | 0 W/m² | - |
| 1788083482 | 20° C | 99% | 1063.9 hPa | 0 mm | - | 0 W/m² | - |
| 1788082879 | 20° C | 99% | 1063.7 hPa | 0 mm | - | 0 W/m² | - |
| 1788082277 | 20° C | 99% | 1063.7 hPa | 0 mm | - | 0 W/m² | - |
| 1788081675 | 20° C | 99% | 1063.9 hPa | 0 mm | - | 0 W/m² | - |
| 1788081074 | 20° C | 99% | 1063.6 hPa | 0 mm | - | 0 W/m² | - |
* Rain latest hour (hover to see other rain measurements)
** Current wind speed in m/s (hover to see current wind gust speed)